User: anonymous
Location: Unspecified
(0.0000°N, 0.0000°E)
Time: 12:28:15
(UTC+02:00)
Language:

ITAMSAT 1 - Orbit

View from above orbital plane
View from above orbital plane
View from above satellite
View from above satellite

Ground track
Ground track

The orbit data is extracted from the following two-line orbital elements,

1 22826U 93061D   14112.82901156  .00000233  00000-0  10757-3 0  4053
2 22826 098.6521 059.4473 0010141 094.0965 266.1377 14.30003093 73000
Epoch (UTC): 22 April 2014 19:53:46
Eccentricity: 0.0010141
inclination: 98.6521°
perigee height: 784 km
apogee height: 799 km
right ascension of ascending node: 59.4473°
argument of perigee: 94.0965°
revolutions per day: 14.30003093
mean anomaly at epoch: 266.1377°
orbit number at epoch: 7300

The dashed part of the orbit path shows where the satellite is in the earth's shadow,  

DLR